Theta_e
320 320 320 320 319 317 316 316 316 317 318 318 318 318 318 318 318 318 318 318 318 318 318 317 317 319 312 299 300 311 338 336 319 307 304 297 293 291 289 290 291 290 293 294 296 295 294
320 320 319 319 318 316 316 316 316 316 316 317 317 318 317 318 318 318 318 318 317 317 317 317 318 320 309 295 305 313 316 311 308 302 300 297 296 296 293 292 292 294 292 294 295 293 293
319 319 319 319 318 317 315 315 315 315 315 315 316 317 317 317 317 317 317 317 317 317 317 318 318 317 307 299 310 317 313 308 308 307 302 300 300 299 298 292 294 293 290 293 294 293 296
318 318 318 318 318 317 315 315 315 315 315 315 315 316 317 317 317 317 317 317 317 317 318 319 319 312 299 309 312 313 312 310 316 310 306 305 303 299 296 295 294 289 288 286 292 294 302
317 317 317 317 317 317 315 314 314 314 314 315 315 316 316 316 317 317 317 316 316 317 318 318 310 305 304 317 313 316 314 311 308 311 310 310 300 294 294 289 286 287 284 285 291 293 297
316 316 317 317 316 315 315 314 314 314 314 315 315 316 316 316 316 316 314 314 316 315 316 317 315 303 307 308 314 311 311 309 304 304 303 299 295 293 291 289 286 285 285 286 288 292 292
315 315 315 316 316 315 315 315 314 314 314 315 316 316 315 316 316 314 307 299 303 301 308 304 303 306 308 315 316 308 306 304 303 302 294 297 295 290 293 292 291 289 289 289 293 297 299
314 314 314 314 314 314 314 314 315 314 315 315 315 315 316 315 315 313 304 300 304 305 301 309 309 309 312 314 309 310 308 302 299 294 296 296 291 294 296 299 297 294 292 293 297 301 300
315 315 315 314 314 313 314 313 313 314 314 314 314 314 315 314 313 306 300 305 308 305 299 304 309 309 309 312 307 307 306 302 298 295 296 293 295 299 295 293 293 293 290 292 294 298 298
315 315 315 314 313 313 313 313 313 313 314 313 313 314 314 313 305 304 300 308 307 306 298 304 304 305 306 307 303 309 308 303 300 296 295 292 294 294 292 291 291 288 294 294 296 294 288
315 315 314 314 313 313 313 313 312 313 312 312 313 313 313 313 297 300 304 307 308 309 287 305 303 309 304 302 303 304 307 307 299 298 297 293 292 290 289 291 293 289 293 291 295 293 290
315 315 314 314 314 313 312 312 312 312 312 312 312 313 312 307 303 307 309 309 310 296 289 299 300 299 298 300 301 301 300 303 304 297 296 293 296 293 289 294 293 294 292 291 292 287 284
315 315 314 314 313 313 312 312 312 312 311 311 311 311 310 311 305 305 309 309 295 290 299 294 295 298 295 295 298 297 294 291 290 287 286 290 290 293 293 290 292 289 283 278 279 281 282
314 314 314 313 313 313 312 312 311 311 311 310 309 308 307 310 305 308 310 301 288 294 292 296 296 297 293 294 294 295 293 289 292 290 285 283 282 290 293 289 286 285 285 279 274 276 278
314 314 314 314 313 313 312 311 311 311 310 309 307 303 304 308 309 307 303 291 292 293 295 294 294 291 290 293 292 292 289 288 290 289 284 282 283 292 294 294 291 288 285 287 283 284 281
313 313 314 313 312 313 312 312 311 311 310 308 303 307 308 310 310 305 298 294 294 299 298 296 288 291 286 288 288 287 288 291 292 293 290 288 280 289 293 295 295 291 292 283 281 278 278
313 313 313 312 312 312 312 312 312 311 309 306 306 303 310 311 307 301 292 294 295 299 299 295 291 290 289 289 289 287 288 291 294 293 292 287 282 282 291 289 287 288 286 285 283 283 279
312 313 313 313 312 312 312 312 311 310 307 304 301 297 309 306 296 293 294 295 298 297 299 298 295 293 291 291 289 289 290 292 296 296 289 288 284 280 285 292 294 291 288 285 279 279 281
312 312 312 312 312 311 311 311 311 310 307 299 298 298 309 303 292 292 293 295 297 296 295 295 294 295 294 290 285 292 293 296 297 295 291 290 284 279 278 285 290 288 290 289 285 283 281
312 312 312 312 312 312 311 311 310 309 307 303 302 296 297 296 294 293 291 291 292 298 296 296 295 295 292 289 290 289 292 296 297 297 305 297 286 281 277 278 286 285 288 289 285 279 280
312 312 312 312 312 312 311 311 310 309 307 301 297 294 295 291 293 293 291 293 292 293 297 295 292 294 291 286 287 288 291 292 297 307 296 293 286 287 288 289 290 289 288 288 286 284 282
312 312 312 312 312 312 311 311 310 309 306 299 295 295 296 293 295 293 292 290 293 294 294 293 291 295 291 288 290 288 290 288 289 293 292 289 285 287 285 290 290 288 289 288 287 288 288
311 312 312 312 312 312 312 311 310 309 305 290 290 297 297 293 294 292 292 295 296 296 295 297 296 292 290 292 294 293 293 292 291 292 290 288 286 283 281 287 288 284 287 287 286 288 287
311 312 312 312 312 312 312 311 311 310 309 302 293 294 292 287 293 294 297 297 296 296 292 295 294 291 294 297 296 294 293 292 291 291 292 287 285 283 281 284 278 287 290 291 289 288 289
311 311 312 312 312 312 312 312 311 311 310 305 297 293 293 289 291 293 294 295 295 292 291 293 294 295 297 295 290 287 287 289 293 291 289 290 287 282 281 280 284 289 292 290 287 288 291
311 311 311 311 312 312 312 312 312 311 310 306 302 293 296 292 290 296 294 293 291 290 292 294 298 295 296 292 289 283 283 286 287 291 293 292 291 287 281 280 276 286 295 296 292 284 292
310 311 311 311 311 312 312 312 312 312 312 308 301 294 294 291 294 293 290 291 294 289 289 290 294 294 293 288 286 284 285 291 286 286 286 286 285 284 282 282 285 292 296 296 284 286 291
310 310 310 311 311 312 312 312 312 312 312 308 300 297 291 287 292 298 299 295 292 290 287 291 292 293 290 288 287 287 286 289 287 289 289 286 284 283 283 281 280 296 295 289 292 292 293
309 310 310 310 310 311 311 312 312 312 312 310 298 299 299 291 288 295 300 302 299 298 292 290 292 291 294 290 289 288 287 287 286 284 291 286 289 285 286 285 292 297 296 298 295 294 296
Wind_Speed
17 18 19 19 19 19 18 17 16 16 14 13 13 13 13 13 12 12 13 13 14 12 12 11 11 11 3 3 10 1 11 13 8 5 7 5 4 5 5 5 5 5 5 7 10 6 8
17 18 19 19 18 20 19 18 17 16 15 14 13 13 13 13 12 12 12 12 12 11 11 9 9 10 1 4 2 2 9 7 7 5 5 6 7 7 4 3 6 7 4 5 7 4 5
19 19 20 19 18 19 19 18 17 16 14 14 13 12 12 12 12 13 13 12 11 10 10 9 7 4 1 14 3 4 7 5 6 6 5 5 4 3 5 2 3 1 3 5 7 5 6
20 20 20 20 19 20 20 19 18 17 16 14 13 12 11 11 11 12 13 12 12 11 9 6 4 2 9 5 3 4 6 3 5 5 3 4 6 2 1 2 6 1 4 4 7 4 3
19 19 19 20 20 19 21 19 18 16 15 14 13 11 11 11 11 11 12 14 15 10 5 2 1 2 10 1 3 2 6 4 6 5 4 5 4 2 4 3 5 6 0 2 8 1 5
21 21 20 20 20 20 20 20 19 18 16 15 14 11 10 10 10 10 13 13 2 5 3 4 3 3 5 3 3 4 3 3 2 4 5 4 6 4 5 5 2 2 4 4 4 5 2
21 22 22 21 21 21 20 19 20 19 18 17 15 12 11 10 9 8 7 2 3 3 1 6 4 5 6 7 3 3 5 4 3 8 5 5 9 4 6 3 0 3 3 3 4 4 9
21 21 22 22 23 22 21 20 19 18 18 16 15 13 10 9 7 4 3 1 2 2 8 7 4 6 6 2 4 3 5 3 4 3 3 7 9 6 5 5 5 3 3 5 6 3 12
20 21 21 22 23 22 22 21 21 19 17 15 14 12 10 8 6 2 2 5 3 0 1 7 6 5 4 5 1 4 3 3 5 5 6 8 1 4 3 7 8 2 4 4 5 3 6
20 21 21 22 21 21 22 22 21 20 18 16 14 12 10 8 4 1 4 2 4 5 4 8 6 3 4 2 4 4 4 2 5 8 6 8 4 3 5 4 3 2 1 3 7 1 2
21 21 22 22 22 22 21 21 21 19 17 15 13 11 9 2 3 1 2 5 3 3 4 8 5 3 7 5 3 10 6 9 5 2 5 0 4 6 7 6 3 5 10 7 5 4 6
21 22 22 23 23 23 23 22 22 20 19 16 13 10 6 1 1 7 6 6 3 7 1 5 5 8 5 9 8 8 9 9 3 8 7 3 4 5 3 6 3 8 5 5 5 3 5
22 23 23 23 24 24 24 24 24 24 22 20 15 11 5 1 4 4 4 4 6 4 4 6 3 5 5 7 6 6 6 8 4 3 6 6 3 5 5 5 8 10 7 6 7 7 3
23 23 24 25 25 25 25 25 26 25 24 22 21 4 7 5 2 5 3 6 2 2 0 2 3 2 5 6 5 6 3 5 7 6 5 4 7 6 8 3 3 4 4 6 2 0 5
23 23 24 25 25 26 26 26 26 26 25 23 14 1 2 3 5 2 6 4 7 5 2 1 2 4 4 3 4 5 3 2 2 3 6 3 4 3 3 3 3 6 6 2 5 3 1
23 23 24 25 26 26 27 27 28 29 26 22 2 3 3 2 6 5 6 5 4 3 4 3 3 0 1 2 3 3 3 1 2 3 2 4 1 1 4 5 5 6 1 4 4 2 2
23 23 24 25 26 27 28 29 29 31 30 11 3 3 2 2 2 6 4 7 5 1 3 4 4 3 2 1 2 2 2 1 3 2 4 4 3 3 2 2 2 5 4 5 4 3 4
23 24 25 25 27 28 29 30 29 30 33 6 2 2 3 2 4 1 3 6 4 4 3 2 4 3 5 4 2 2 3 3 4 7 4 2 5 1 3 2 2 1 3 4 6 2 1
24 25 26 26 26 28 29 31 31 30 26 3 2 3 3 4 2 2 4 1 3 3 3 4 4 4 3 5 2 3 3 1 7 6 8 6 1 3 7 6 3 2 2 4 5 3 4
24 24 25 26 26 27 29 30 33 31 27 2 3 4 6 5 1 3 1 2 2 0 4 4 4 4 3 3 1 5 5 3 1 4 8 8 3 7 7 6 4 3 4 3 6 4 4
23 24 24 25 25 25 27 30 33 35 30 1 5 1 2 4 4 4 2 1 3 4 1 4 1 5 7 5 1 3 2 1 1 8 4 6 5 6 6 6 4 5 6 8 7 5 6
22 23 24 25 25 25 25 27 31 32 30 6 3 4 5 3 4 5 2 1 3 3 7 5 5 7 6 8 9 9 7 4 6 3 5 1 3 5 3 5 6 5 6 5 4 4 7
22 23 23 24 24 24 24 23 27 28 15 4 3 1 4 4 4 2 3 2 4 4 6 6 9 7 5 10 9 7 7 3 4 10 7 6 6 4 5 1 2 6 9 10 6 5 7
22 23 23 23 24 24 23 22 23 19 13 0 3 1 3 5 1 3 3 3 7 5 6 2 6 8 6 6 6 5 4 2 4 7 5 7 6 3 3 2 3 9 3 5 9 6 9
22 23 23 23 23 24 23 21 19 18 13 2 2 1 2 3 3 8 4 3 8 6 0 2 2 2 7 6 5 4 5 5 4 4 6 5 6 3 5 5 5 5 5 8 9 11 11
23 23 24 24 24 24 24 22 19 17 17 0 2 2 1 2 5 3 3 2 2 4 7 2 4 2 7 4 3 6 6 6 4 3 7 6 4 5 3 4 8 9 3 7 5 8 7
22 23 24 24 24 24 24 23 20 18 15 6 3 3 2 1 5 3 4 3 1 1 2 4 5 2 4 3 2 4 5 4 4 5 5 3 2 8 4 5 8 8 5 5 6 10 4
22 23 24 24 24 25 25 23 21 18 14 4 4 4 3 2 7 4 3 2 1 2 3 4 5 3 3 2 4 4 4 5 2 4 6 8 7 5 2 3 8 6 6 9 9 3 3
22 23 24 25 24 24 25 24 22 19 13 4 3 1 1 2 6 3 8 8 9 8 6 3 5 3 5 5 2 3 3 1 4 4 1 2 9 7 10 9 4 11 7 13 5 5 5
Wind_Direction
345 344 343 342 341 338 332 327 321 315 308 302 300 299 298 296 294 295 293 295 298 306 312 315 321 325 342 354 251 161 102 128 114 127 140 129 126 140 166 185 142 191 247 180 246 254 230
346 345 343 342 340 338 334 331 325 318 313 307 300 297 297 292 294 297 297 294 295 303 305 312 320 324 352 300 231 193 133 138 138 122 145 135 183 201 151 195 169 204 226 251 275 248 218
347 345 342 341 340 340 338 334 329 322 316 310 303 295 291 292 303 305 298 291 293 297 298 307 311 301 257 237 135 94 159 179 179 162 152 204 172 142 145 245 228 180 263 305 238 218 190
346 343 342 341 340 344 342 339 334 328 323 316 305 300 298 306 304 302 301 300 292 291 290 287 279 257 250 229 173 270 162 250 218 207 159 160 144 119 208 305 10 347 56 10 318 360 16
345 343 342 341 342 344 346 343 337 330 323 315 309 299 299 302 306 312 309 298 297 282 244 193 147 173 275 322 265 226 160 200 155 151 187 116 106 109 30 79 12 12 35 321 331 304 128
346 346 344 343 345 346 345 346 341 334 332 327 316 308 302 308 319 321 320 312 73 143 143 177 254 348 258 283 283 150 209 170 182 116 84 66 51 47 23 53 268 315 4 306 249 277 9
349 347 345 348 346 345 344 345 345 340 338 331 325 313 311 320 322 331 346 285 346 9 155 217 198 256 287 293 265 187 158 128 97 53 74 357 70 21 291 250 237 119 153 260 255 289 80
350 348 349 348 347 345 342 343 341 341 340 333 328 322 317 314 312 324 278 43 223 200 315 235 270 276 274 291 338 317 125 108 73 82 114 41 59 317 317 55 86 81 74 339 290 18 94
351 350 348 348 347 343 343 342 340 339 336 333 329 323 318 311 325 263 238 235 64 181 191 297 200 212 255 142 155 302 120 133 102 63 79 108 282 314 29 37 34 355 74 318 256 55 65
353 352 351 349 346 344 343 341 339 337 333 330 324 317 311 312 309 237 261 242 301 184 54 319 342 6 29 198 66 16 18 58 61 148 122 94 335 26 25 44 57 298 96 285 279 54 198
353 352 351 348 346 345 342 341 339 334 330 325 319 310 304 282 276 253 271 321 299 68 69 329 343 288 356 65 304 352 354 33 65 42 100 57 22 15 31 325 317 250 310 260 240 199 119
356 354 352 349 347 345 343 341 338 336 333 329 321 310 301 177 233 249 308 317 54 43 298 2 4 348 36 17 10 334 24 32 66 66 30 78 337 77 322 306 352 293 332 21 44 85 69
353 352 351 350 348 346 344 341 339 338 335 329 322 299 238 177 232 301 305 48 39 106 342 340 347 4 71 11 32 33 40 29 52 54 14 340 18 341 45 22 346 23 32 1 21 21 216
352 351 350 350 348 347 345 342 339 338 336 331 324 245 218 230 310 354 58 53 130 233 265 317 25 13 74 1 9 13 60 29 10 60 69 50 336 16 325 49 267 349 87 130 167 346 281
353 354 353 352 349 347 346 344 340 339 338 335 321 244 263 261 196 115 74 64 199 204 191 103 73 67 354 14 93 56 53 118 14 39 120 90 277 327 48 12 80 325 37 189 108 26 33
353 354 354 353 351 349 348 348 345 342 340 337 358 2 283 100 155 71 76 222 207 233 129 76 156 82 232 340 72 72 160 241 130 57 103 199 330 28 306 35 13 90 214 43 8 111 297
355 353 352 353 353 352 350 350 349 345 343 340 46 43 289 129 79 54 162 223 210 212 126 131 180 149 196 187 166 157 157 209 169 105 86 123 118 275 72 68 204 2 13 48 111 116 169
357 355 353 351 352 352 351 351 352 352 345 53 66 24 334 74 61 21 164 196 185 158 98 110 116 137 186 176 159 134 148 176 170 153 147 136 140 240 194 310 15 119 143 118 114 244 178
354 354 354 353 352 353 353 352 352 355 358 339 44 263 347 67 148 262 265 204 158 127 159 155 164 165 191 187 141 154 171 178 162 154 169 184 21 7 353 3 360 167 201 124 102 79 209
352 352 352 351 351 351 353 355 352 353 356 360 46 2 331 46 23 106 16 212 189 137 163 147 163 120 122 195 235 181 186 225 213 171 129 102 135 161 199 211 169 192 208 166 134 137 195
349 350 351 350 352 352 353 358 357 349 351 29 24 349 182 321 336 355 318 267 176 216 205 147 171 192 167 182 192 224 196 221 82 149 92 127 196 175 238 241 206 219 206 187 187 195 172
348 348 348 349 350 353 354 359 1 357 343 69 53 21 353 296 302 315 359 29 239 243 159 238 191 205 178 166 183 207 174 186 204 183 152 19 207 163 265 253 229 247 246 217 216 212 255
346 345 345 346 346 350 353 357 5 6 4 34 326 337 102 290 336 14 251 359 296 339 246 204 193 135 175 223 200 208 186 178 185 167 182 154 138 117 254 329 97 298 222 193 206 205 168
342 341 343 343 344 346 349 352 1 8 26 181 263 63 75 281 294 244 302 311 278 265 231 195 133 138 224 101 93 72 66 283 204 230 156 146 128 132 200 81 255 238 207 201 202 227 215
340 340 340 340 341 342 344 347 351 360 1 326 265 152 143 272 233 297 289 274 316 315 299 272 212 196 134 65 64 28 333 353 263 209 199 157 129 148 161 193 293 284 210 180 173 261 209
338 337 338 336 339 339 339 342 345 346 353 226 267 205 129 119 256 274 332 338 311 327 342 354 15 128 65 88 103 173 208 223 279 200 39 91 88 141 144 181 221 235 244 139 110 286 222
332 333 333 333 335 335 334 334 339 340 341 340 273 185 113 195 271 166 218 208 146 114 237 312 338 356 46 97 134 172 234 207 208 220 187 107 103 202 167 226 277 234 166 152 130 240 208
327 328 328 330 331 330 330 329 333 336 335 348 276 203 139 202 276 219 265 257 28 112 125 272 15 323 56 114 154 216 196 228 201 217 185 175 157 204 137 210 282 152 91 170 214 202 208
324 325 325 326 328 327 326 326 329 333 328 335 278 317 100 176 249 284 250 238 194 204 156 220 205 191 210 105 207 117 219 195 183 238 71 229 187 195 172 212 228 199 202 218 172 182 214